Home > Weather > Thusis > Past weeks

Flag for Switzerland Weather for the Past 2 Weeks in Thusis, Graubünden, Switzerland

Now
71 °F

Mild.


Feels Like: 76 °F
Forecast: 35 / 61 °F
Wind: 6 mph from Southwest

Location: Chur

Current Time: May 6, 2016 at 1:49:26 PM

Latest Report: May 6, 2016 at 1:00 PM


Visibility: N/A

Pressure: 29.93 "Hg (27.53 "Hg at 718m altitude)

Humidity: 28%

Dew Point: 35 °F

Location of ThusisLocation

Historic Weather in Thusis — Graph

°F

Thusis Temperature Yesterday

Maximum temperature yesterday: 69 °F (at 5:00 PM)
Minimum temperature yesterday: 37 °F (at 6:00 AM)
Average temperature yesterday: 53 °F

High & Low Weather Summary for the Past Weeks

 TemperatureHumidityPressure
High71 °F (Apr 21, 1:00 PM)95% (Apr 25, 3:00 AM)30.35 "Hg (Apr 25, 3:00 AM)
Low34 °F (Apr 25, 3:00 AM)20% (May 5, 4:00 PM)29.61 "Hg (Apr 26, 4:00 PM)
Average50 °F63%30.00 "Hg
* Reported Apr 21 12:00 Noon — May 6 12:00 Noon, Thusis, Weather by CustomWeather, © 2016

Note: Actual official high and low records may vary slightly from our data, if they occured in-between our weather recording intervals... More about our weather records

Advertising

Thusis Weather History for the Previous 24 Hours

Scroll right to see more
 ConditionsComfort  
Time TempWeatherWind HumidityBarometerVisibility
12:00 PM
Fri, May 6
69 °FMild.6 mph30%29.96 "HgN/A
11:00 AM66 °FPassing clouds.9 mph28%29.99 "Hg12 mi
10:00 AM60 °FRefreshingly cool.7 mph40%30.04 "HgN/A
9:00 AM56 °FRefreshingly cool.9 mph44%30.08 "HgN/A
8:00 AM51 °FSunny.10 mph50%30.12 "Hg12 mi
7:00 AM47 °FCool.9 mph59%30.14 "HgN/A
6:00 AM47 °FCool.8 mph60%30.14 "HgN/A
5:00 AM50 °FClear.7 mph51%30.13 "Hg7 mi
4:00 AM48 °FCool.6 mph59%30.14 "HgN/A
3:00 AM50 °FCool.8 mph53%30.13 "HgN/A
2:00 AM52 °FClear.7 mph49%30.12 "Hg7 mi
1:00 AM53 °FCool.10 mph47%30.12 "HgN/A
12:00 AM54 °FCool.10 mph45%30.11 "HgN/A
11:00 PM
Thu, May 5
54 °FClear.12 mph45%30.09 "Hg16 mi
10:00 PM58 °FRefreshingly cool.8 mph37%30.07 "HgN/A
9:00 PM61 °FRefreshingly cool.12 mph33%30.05 "HgN/A
8:00 PM62 °FSunny.8 mph30%30.02 "Hg16 mi
7:00 PM65 °FMild.9 mph26%30.00 "HgN/A
6:00 PM68 °FMild.8 mph25%30.00 "HgN/A
5:00 PM69 °FSunny.12 mph22%30.00 "Hg16 mi
4:00 PM69 °FMild.13 mph20%30.00 "HgN/A
3:00 PM69 °FMild.15 mph22%30.02 "HgN/A
2:00 PM67 °FSunny.10 mph25%30.04 "Hg16 mi
1:00 PM65 °FMild.10 mph31%30.07 "HgN/A
Weather by CustomWeather, © 2016

See weather overviewHow to use our weather pages